IRIDIUM 33 DEB, 34508

Orbit data source: Space-Track

IRIDIUM 33 DEB, 34508 is space debris in LEO originally from a launch on Sun, 14 Sep 1997 UTC launched from the Tyuratam Missile And Space Complex (TTMTR). The debris from Iridium 33, an American commercial communications satellite, has been tracked extensively since its accidental collision with the defunct Russian satellite Cosmos 2251 in 2009. This event, occurring at high speed in low Earth orbit (LEO), generated thousands of pieces of space debris, significantly increasing the risk of further collisions. The Iridium 33 debris cloud has impacted space traffic management and orbital debris mitigation strategies, making it a subject of ongoing study in space situational awareness.

Loading next visibility...
Identifier
34508, 1997-051GZ
Orbit
LEO
Country
Flag of USUS
Related business
Manufacturer
Unknown
Mission
Spacecraft
Bus & Motor
Unknown
Mass
Unknown
Launch date (UTC)
1997-09-14 (29 years ago)
Launch vehicle
Unknown
Launch site
Tyuratam Missile And Space Complex (TTMTR)
Object type
Payload
Rocket body
Debris
Shape & HBR
Unknown shape, 0.1 m
Radar Cross Section
Small (<0.1 m²)

Expand to show TLE details & history
Last TLE update: 11 hours ago

TLE from 11 hours ago
0 IRIDIUM 33 DEB
1 34508U 97051GZ  26122.28400247  .00003870  00000-0  12041-2 0  9990
2 34508  86.3730  42.9727 0066910  71.7106 289.1358 14.39464165893306
Epoch: 2026-05-02T06:48Z
TLE epoch observation values (Epoch: 2026-05-02T06:48:57.813Z)
Latitude
0.00005°
Longitude
80.5277°
Altitude
747.953 km
Speed
7.489 km/s
True Right ascension
02h 51m 53s
True Declination
0° 00' 00"
Sunlit
Object was in daylight at epoch
Visualization orbit readout
Latitude
Unknown
Longitude
Unknown
Altitude
Unknown
Speed
Unknown
Apparent Right ascension
Unknown
Apparent Declination
Unknown
Sunlit
N/A
Visualization observer readout
Local Sidereal Time
01:39:12
Azimuth
Unknown
Elevation
Unknown
Doppler factor
Unknown
Orbital elements
Apogee altitude
804.969 km
Perigee altitude
709.484 km
Semi-major axis
7,135.364 km
Eccentricity
0.00669
Inclination
86.373°
RAAN
42.9727°
Arg. of periapsis
71.7106°
True anomaly
288.40946°
Mean anomaly
289.1358°
Eccentric anomaly
288.77283°
Mean motion
3.60097 °/min
Orbital period
99.97 mins
BSTAR
0.0012041
Loading maneuver chart data...
Computing Atmospheric mass density...
Loading historical data...
Loading historical data...
Loading historical data...
Loading historical data...
Loading historical data...
Loading historical data...
Loading historical data...

Documentation

Showing up to 5 results
|